EUTELSAT 48D

Last updated on Nov. 14, 2019, 4:21 a.m. UTC

1 33460U 08065B   19317.77558958  .00000138  00000-0  00000+0 0  9991
2 33460   0.0878  69.1556 0004255 155.0234 155.7389  1.00274189 39977
UTC
Height (km)
Latitude
Longitude
Inclination
Orbital Period
UTC large
Height (km)
Speed (km/s)
/
Latitude / Longitude
Inclination (degrees)
Orbital Period (minutes)
Azimuth
Elevation
Range (km)
Doppler Factor
iOS Compass Heading
iOS Angle

Next 30 passes for location: Hong Kong

Rise time Rise Azimuth (degrees) Set time Set Azimuth (degrees) Duration Max altitude (degrees)

No matching passes for this satellites